TimeMST,TemperatureF,Dew PointF,Humidity,Sea Level PressureIn,VisibilityMPH,Wind Direction,Wind SpeedMPH,Gust SpeedMPH,PrecipitationIn,Events,Conditions,WindDirDegrees,DateUTC
12:07 AM,32.0,17.6,55,29.93,10.0,South,8.1,-,N/A,,Clear,180,2013-02-05 07:07:00
12:27 AM,30.2,17.6,60,29.93,10.0,South,8.1,-,N/A,,Clear,180,2013-02-05 07:27:00
12:47 AM,30.2,17.6,60,29.91,10.0,South,9.2,-,N/A,,Clear,190,2013-02-05 07:47:00
1:07 AM,30.2,17.6,60,29.91,10.0,SSW,9.2,-,N/A,,Clear,200,2013-02-05 08:07:00
1:26 AM,30.2,17.6,60,29.92,10.0,South,6.9,-,N/A,,Clear,190,2013-02-05 08:26:00
1:47 AM,32.0,17.6,55,29.93,10.0,SSW,8.1,-,N/A,,Clear,200,2013-02-05 08:47:00
2:07 AM,30.2,17.6,60,29.93,10.0,South,9.2,-,N/A,,Clear,190,2013-02-05 09:07:00
2:27 AM,35.6,15.8,44,29.93,10.0,SSW,10.4,-,N/A,,Clear,210,2013-02-05 09:27:00
2:47 AM,28.4,17.6,64,29.94,10.0,South,10.4,-,N/A,,Clear,190,2013-02-05 09:47:00
3:07 AM,28.4,17.6,64,29.93,10.0,South,6.9,-,N/A,,Clear,190,2013-02-05 10:07:00
3:27 AM,28.4,17.6,64,29.94,10.0,SSW,8.1,-,N/A,,Clear,210,2013-02-05 10:27:00
3:47 AM,33.8,17.6,52,29.94,10.0,SSW,10.4,-,N/A,,Clear,210,2013-02-05 10:47:00
4:06 AM,37.4,15.8,41,29.94,10.0,SSW,10.4,-,N/A,,Clear,210,2013-02-05 11:06:00
4:27 AM,32.0,17.6,55,29.95,10.0,SSW,8.1,-,N/A,,Clear,200,2013-02-05 11:27:00
4:47 AM,35.6,17.6,48,29.96,10.0,SW,8.1,-,N/A,,Clear,220,2013-02-05 11:47:00
5:07 AM,35.6,17.6,48,29.96,10.0,SSW,10.4,-,N/A,,Clear,210,2013-02-05 12:07:00
5:27 AM,37.4,17.6,45,29.97,10.0,SSW,10.4,-,N/A,,Clear,210,2013-02-05 12:27:00
5:46 AM,37.4,17.6,45,29.97,10.0,SW,5.8,-,N/A,,Clear,220,2013-02-05 12:46:00
6:07 AM,35.6,17.6,48,29.99,10.0,SSW,3.5,-,N/A,,Clear,200,2013-02-05 13:07:00
6:27 AM,32.0,17.6,55,29.99,10.0,SSW,4.6,-,N/A,,Clear,210,2013-02-05 13:27:00
6:47 AM,28.4,17.6,64,29.99,10.0,SW,4.6,-,N/A,,Clear,220,2013-02-05 13:47:00
7:07 AM,28.4,17.6,64,30.00,10.0,South,4.6,-,N/A,,Clear,180,2013-02-05 14:07:00
7:27 AM,28.4,17.6,64,30.01,10.0,SE,5.8,-,N/A,,Clear,140,2013-02-05 14:27:00
7:47 AM,26.6,19.4,74,30.01,10.0,SSE,5.8,-,N/A,,Clear,160,2013-02-05 14:47:00
7:50 AM,28.4,19.4,69,30.03,50.0,South,5.8,-,N/A,,Partly Cloudy,170,2013-02-05 14:50:00
8:00 AM,28.4,19.4,69,30.03,10.0,South,5.8,-,N/A,,Clear,180,2013-02-05 15:00:00
8:55 AM,41.0,19.4,42,30.06,50.0,ESE,4.6,-,N/A,,Partly Cloudy,120,2013-02-05 15:55:00
9:52 AM,48.2,17.6,30,30.05,50.0,SE,11.5,-,N/A,,Scattered Clouds,130,2013-02-05 16:52:00
10:48 AM,53.6,17.6,24,30.04,50.0,SE,17.3,-,N/A,,Scattered Clouds,130,2013-02-05 17:48:00
11:48 AM,53.6,17.6,24,30.02,50.0,SE,11.5,-,N/A,,Scattered Clouds,130,2013-02-05 18:48:00
12:50 PM,55.4,15.8,21,29.97,50.0,SSE,6.9,16.1,N/A,,Scattered Clouds,160,2013-02-05 19:50:00
2:50 PM,59.0,15.8,19,29.91,50.0,South,4.6,-,N/A,,Scattered Clouds,170,2013-02-05 21:50:00
3:55 PM,59.0,17.6,20,29.90,50.0,South,4.6,-,N/A,,Mostly Cloudy,180,2013-02-05 22:55:00
9:26 PM,46.4,17.6,32,29.86,10.0,SSW,19.6,25.3,N/A,,Clear,200,2013-02-06 04:26:00
9:47 PM,46.4,17.6,32,29.86,10.0,SSW,20.7,26.5,N/A,,Clear,200,2013-02-06 04:47:00
10:07 PM,46.4,17.6,32,29.86,10.0,SSW,17.3,-,N/A,,Clear,210,2013-02-06 05:07:00
10:27 PM,46.4,17.6,32,29.85,10.0,SSW,17.3,-,N/A,,Clear,200,2013-02-06 05:27:00
10:47 PM,46.4,17.6,32,29.85,10.0,SSW,20.7,-,N/A,,Clear,200,2013-02-06 05:47:00
11:07 PM,44.6,17.6,34,29.84,10.0,SSW,17.3,-,N/A,,Clear,200,2013-02-06 06:07:00
11:27 PM,44.6,17.6,34,29.84,10.0,SSW,17.3,-,N/A,,Clear,200,2013-02-06 06:27:00
11:47 PM,44.6,17.6,34,29.83,10.0,SSW,16.1,-,N/A,,Clear,210,2013-02-06 06:47:00